Location: Chiroubles
(46.1812°N, 4.6660°E)
Time: 16:31:59
(UTC+00:00)

Transit 4A - Pass Details

Date: 09 December 2020
Orbit: 864 x 980 km, 66.8° (Epoch: 26 January)

Event Time Altitude Azimuth Distance (km) Brightness Sun altitude
Rises 14:50:34 0° 321° (NW) 3,672 11.0 7.8°
Reaches altitude 10° 14:53:19 10° 314° (NW) 2,710 10.4 7.5°
Maximum altitude 14:59:03 37° 249° (WSW) 1,424 9.9 6.8°
Drops below altitude 10° 15:04:37 10° 184° (S) 2,627 11.1 6.1°
Sets 15:07:16 0° 176° (S) 3,547 11.5 5.7°
